User: anonymous   Login
Location: Norwich
(52.6280°N, 1.3030°E)
Time: 04:21:55
(UTC+00:00)
Language:

ATLAS 5 CENTAUR R/B - Orbit

View from above orbital plane
View from above orbital plane
View from above satellite
View from above satellite

Ground track
Ground track

The orbit data is extracted from the following two-line orbital elements,

1 32379U 07060B   15004.63170690 0.00003000  00000-0  13369-2 0    09
2 32379  60.8942 323.7837 5183500 204.3991 118.1429  5.23749007    01
Epoch (UTC): 04 January 2015 15:09:39
Eccentricity: 0.5183500
inclination: 60.8942°
perigee height: 368 km
apogee height: 14888 km
right ascension of ascending node: 323.7837°
argument of perigee: 204.3991°
revolutions per day: 5.23749007
mean anomaly at epoch: 118.1429°
orbit number at epoch: 0

The dashed part of the orbit path shows where the satellite is in the earth's shadow,  

DLR